2018-096P (43732 NORAD) Tracking and Keplerian Element Data

This shows tracking and keplerian element data for the satellite.

Feedback or suggestion? Click here.




ElementValue
Catalog43732
Name2018-096P
Epoch Orbit172
Epoch Day344.52149582
Epoch Year2018
RAAN49.5334
Inclination97.4834
Eccentricity0.0019935
Argument of Perigee287.901
Mean Anonmoly183.3384
Mean Motion15.26639545
Decay Rate2.548E-05
L11 43732U 18096P 18344.52149582 .00002548 00000-0 99588-4 0 9991
L22 43732 97.4834 49.5334 0019935 287.9010 183.3384 15.26639545 1724

Live tracking and technical data element details for 2018-096P (NORAD 43732). 2018-096P can be tracked NOW for your location showing map with azimuth and elevation plus other details from your city location.

Track the satellite on the map from your city or location and see movement details for azimuth, elevation, latitude, longitude, range, height, and movement on the map or in text.







IsCatalogInMostPopularTable: catalog: 43732, numindb: 5
Update: records affected: 1



GetName: 43732 2018-096P

Hit Count: updated at: Tue, 11 Dec 2018 02:04:26 GMT